�N����,����,�g�[���i�L�b�`���j���x,�g�[�����x,��g�[���i���ʏ��j���x,����
 2003/12/01, 0:00,17.1,61,15.7,-9.9
 2003/12/01, 0:15,17,62,16.6,-9.9
 2003/12/01, 0:30,16.9,62,15.9,-9.9
 2003/12/01, 0:45,16.8,62,15.6,-9.9
 2003/12/01, 1:00,16.7,61,15.5,-9.9
 2003/12/01, 1:15,16.7,61,15.4,-9.9
 2003/12/01, 1:30,16.6,61,15.3,-9.9
 2003/12/01, 1:45,16.6,61,15.3,-9.9
 2003/12/01, 2:00,16.5,62,15.1,-9.9
 2003/12/01, 2:15,16.4,62,15.1,-9.9
 2003/12/01, 2:30,16.4,62,15,-9.9
 2003/12/01, 2:45,16.3,62,14.9,-9.9
 2003/12/01, 3:00,16.3,62,14.9,-9.9
 2003/12/01, 3:15,16.2,62,14.8,-9.9
 2003/12/01, 3:30,16.2,62,14.8,-9.9
 2003/12/01, 3:45,16.2,62,14.9,-9.9
 2003/12/01, 4:00,16.1,62,14.8,-9.9
 2003/12/01, 4:15,16.1,63,14.8,-9.9
 2003/12/01, 4:30,16.1,63,14.8,-9.9
 2003/12/01, 4:45,16.1,63,14.8,-9.9
 2003/12/01, 5:00,16.2,63,14.8,-9.9
 2003/12/01, 5:15,16.2,63,14.8,-9.9
 2003/12/01, 5:30,16.2,64,14.8,-9.9
 2003/12/01, 5:45,16.2,63,14.8,-9.9
 2003/12/01, 6:00,16.1,63,14.8,-9.9
 2003/12/01, 6:15,16.1,63,14.8,-9.9
 2003/12/01, 6:30,16.4,65,14.8,-9.9
 2003/12/01, 6:45,16.3,64,14.9,-9.9
 2003/12/01, 7:00,17.7,62,15,-9.9
 2003/12/01, 7:15,18.8,58,15,-9.9
 2003/12/01, 7:30,19.4,56,15.1,-9.9
 2003/12/01, 7:45,20.3,54,15.6,-9.9
 2003/12/01, 8:00,19.9,55,15.9,-9.9
 2003/12/01, 8:15,20.1,55,15.9,-9.9
 2003/12/01, 8:30,20.2,54,16,-9.9
 2003/12/01, 8:45,19.3,55,15.9,-9.9
 2003/12/01, 9:00,18.7,57,15.8,-9.9
 2003/12/01, 9:15,18.4,57,15.8,-9.9
 2003/12/01, 9:30,18.1,58,15.9,-9.9
 2003/12/01, 9:45,18,58,15.8,-9.9
 2003/12/01,10:00,17.9,59,15.9,-9.9
 2003/12/01,10:15,17.2,56,15.9,-9.9
 2003/12/01,10:30,17,56,15.9,-9.9
 2003/12/01,10:45,16.9,56,15.8,-9.9
 2003/12/01,11:00,16.9,55,15.8,-9.9
 2003/12/01,11:15,16.7,56,15.9,-9.9
 2003/12/01,11:30,16.7,55,15.8,-9.9
 2003/12/01,11:45,16.6,55,15.8,-9.9
 2003/12/01,12:00,16.5,55,15.8,-9.9
 2003/12/01,12:15,16.5,58,15.6,-9.9
 2003/12/01,12:30,16.6,56,15.6,-9.9
 2003/12/01,12:45,16.7,56,15.6,-9.9
 2003/12/01,13:00,16.9,56,15.6,-9.9
 2003/12/01,13:15,16.7,56,15.6,-9.9
 2003/12/01,13:30,16.9,56,15.7,-9.9
 2003/12/01,13:45,17,57,15.7,-9.9
 2003/12/01,14:00,17.3,60,15.8,-9.9
 2003/12/01,14:15,17.3,60,15.9,-9.9
 2003/12/01,14:30,17.4,60,15.9,-9.9
 2003/12/01,14:45,17.4,60,16,-9.9
 2003/12/01,15:00,17.4,60,15.9,-9.9
 2003/12/01,15:15,17.4,60,15.9,-9.9
 2003/12/01,15:30,17.7,61,16,-9.9
 2003/12/01,15:45,17.6,60,16,-9.9
 2003/12/01,16:00,17.5,60,15.8,-9.9
 2003/12/01,16:15,17.6,60,15.8,-9.9
 2003/12/01,16:30,17.5,58,15.6,-9.9
 2003/12/01,16:45,17.4,57,15.5,-9.9
 2003/12/01,17:00,17.3,58,15.3,-9.9
 2003/12/01,17:15,17.3,57,15.4,-9.9
 2003/12/01,17:30,17.2,57,15.2,-9.9
 2003/12/01,17:45,17.5,59,15.1,-9.9
 2003/12/01,18:00,17.5,59,15.6,-9.9
 2003/12/01,18:15,17.5,59,16.3,-9.9
 2003/12/01,18:30,17.5,61,16.7,-9.9
 2003/12/01,18:45,17.5,62,17.8,-9.9
 2003/12/01,19:00,17.7,63,17.3,-9.9
 2003/12/01,19:15,17.7,63,17.4,-9.9
 2003/12/01,19:30,17.8,63,17.4,-9.9
 2003/12/01,19:45,17.9,63,17.9,-9.9
 2003/12/01,20:00,17.9,62,17.5,-9.9
 2003/12/01,20:15,17.8,61,17,-9.9
 2003/12/01,20:30,17.6,61,16.7,-9.9
 2003/12/01,20:45,17.6,60,16.5,-9.9
 2003/12/01,21:00,17.4,59,16.3,-9.9
 2003/12/01,21:15,17.5,59,16.6,-9.9
 2003/12/01,21:30,17.5,59,17.7,-9.9
 2003/12/01,21:45,17.5,59,17,-9.9
 2003/12/01,22:00,17.4,59,16.8,-9.9
 2003/12/01,22:15,18.4,60,16.7,-9.9
 2003/12/01,22:30,19.5,56,16.4,-9.9
 2003/12/01,22:45,19.9,54,16.6,-9.9
 2003/12/01,23:00,18.7,56,16,-9.9
 2003/12/01,23:15,18.4,57,15.8,-9.9
 2003/12/01,23:30,18.1,58,15.6,-9.9
 2003/12/01,23:45,17.9,58,15.6,-9.9
 2003/12/02, 0:00,17.6,58,15.3,-9.9
 2003/12/02, 0:15,17.4,58,15.2,-9.9
 2003/12/02, 0:30,17.2,58,15,-9.9
 2003/12/02, 0:45,17.1,58,15,-9.9
 2003/12/02, 1:00,17,58,14.8,-9.9
 2003/12/02, 1:15,16.9,58,14.8,-9.9
 2003/12/02, 1:30,16.7,58,14.8,-9.9
 2003/12/02, 1:45,16.6,58,14.7,-9.9
 2003/12/02, 2:00,16.6,58,14.6,-9.9
 2003/12/02, 2:15,16.5,58,14.6,-9.9
 2003/12/02, 2:30,16.3,58,14.5,-9.9
 2003/12/02, 2:45,16.3,58,14.4,-9.9
 2003/12/02, 3:00,16.2,59,14.4,-9.9
 2003/12/02, 3:15,16.2,59,14.4,-9.9
 2003/12/02, 3:30,16.2,59,14.4,-9.9
 2003/12/02, 3:45,16.1,59,14.4,-9.9
 2003/12/02, 4:00,16.1,59,14.3,-9.9
 2003/12/02, 4:15,16.1,59,14.3,-9.9
 2003/12/02, 4:30,16,59,14.3,-9.9
 2003/12/02, 4:45,15.9,59,14.2,-9.9
 2003/12/02, 5:00,15.9,59,14.2,-9.9
 2003/12/02, 5:15,15.9,59,14.2,-9.9
 2003/12/02, 5:30,15.9,59,14.1,-9.9
 2003/12/02, 5:45,15.8,59,14.1,-9.9
 2003/12/02, 6:00,15.8,59,14.1,-9.9
 2003/12/02, 6:15,15.7,59,14,-9.9
 2003/12/02, 6:30,16,59,14.4,-9.9
 2003/12/02, 6:45,15.9,59,14.9,-9.9
 2003/12/02, 7:00,16.1,60,14.6,-9.9
 2003/12/02, 7:15,17,58,14.4,-9.9
 2003/12/02, 7:30,17.1,55,14.3,-9.9
 2003/12/02, 7:45,16.9,55,14.6,-9.9
 2003/12/02, 8:00,16.6,55,14.2,-9.9
 2003/12/02, 8:15,16.4,56,14.2,-9.9
 2003/12/02, 8:30,16.2,57,14.1,-9.9
 2003/12/02, 8:45,16.1,55,14.2,-9.9
 2003/12/02, 9:00,16,55,14.2,-9.9
 2003/12/02, 9:15,16,55,14.3,-9.9
 2003/12/02, 9:30,15.8,55,14.3,-9.9
 2003/12/02, 9:45,15.7,54,14.3,-9.9
 2003/12/02,10:00,15.6,54,14.4,-9.9
 2003/12/02,10:15,15.5,54,14.4,-9.9
 2003/12/02,10:30,15.5,54,14.4,-9.9
 2003/12/02,10:45,15.4,53,14.4,-9.9
 2003/12/02,11:00,15.4,53,14.5,-9.9
 2003/12/02,11:15,15.3,53,14.5,-9.9
 2003/12/02,11:30,15.3,52,14.5,-9.9
 2003/12/02,11:45,15.4,51,14.9,-9.9
 2003/12/02,12:00,15.5,50,14.8,-9.9
 2003/12/02,12:15,15.4,50,14.8,-9.9
 2003/12/02,12:30,15.4,51,14.7,-9.9
 2003/12/02,12:45,15.2,50,14.7,-9.9
 2003/12/02,13:00,15.2,50,14.7,-9.9
 2003/12/02,13:15,15.3,51,15.1,-9.9
 2003/12/02,13:30,15.5,52,15.2,-9.9
 2003/12/02,13:45,15.4,50,15.3,-9.9
 2003/12/02,14:00,15.5,51,15.2,-9.9
 2003/12/02,14:15,15.5,51,15.1,-9.9
 2003/12/02,14:30,15.4,51,15,-9.9
 2003/12/02,14:45,15.3,51,14.8,-9.9
 2003/12/02,15:00,15.3,51,14.8,-9.9
 2003/12/02,15:15,15.2,51,14.7,-9.9
 2003/12/02,15:30,15.2,51,14.6,-9.9
 2003/12/02,15:45,15.2,52,14.5,-9.9
 2003/12/02,16:00,15.4,52,14.4,-9.9
 2003/12/02,16:15,15.5,53,14.4,-9.9
 2003/12/02,16:30,15.9,52,14.3,-9.9
 2003/12/02,16:45,15.8,52,14.2,-9.9
 2003/12/02,17:00,15.7,51,14.1,-9.9
 2003/12/02,17:15,15.5,51,14.1,-9.9
 2003/12/02,17:30,15.7,53,15,-9.9
 2003/12/02,17:45,15.7,54,16.2,-9.9
 2003/12/02,18:00,15.8,55,17.5,-9.9
 2003/12/02,18:15,16.2,60,16.1,-9.9
 2003/12/02,18:30,16.5,60,16.1,-9.9
 2003/12/02,18:45,16.7,60,16.1,-9.9
 2003/12/02,19:00,16.6,60,15.8,-9.9
 2003/12/02,19:15,16.5,59,15.5,-9.9
 2003/12/02,19:30,16.9,60,15.3,-9.9
 2003/12/02,19:45,16.6,58,15.1,-9.9
 2003/12/02,20:00,16.6,57,15,-9.9
 2003/12/02,20:15,16.5,55,15,-9.9
 2003/12/02,20:30,16.3,55,14.8,-9.9
 2003/12/02,20:45,16.2,55,14.9,-9.9
 2003/12/02,21:00,16.1,54,14.6,-9.9
 2003/12/02,21:15,16.1,54,14.9,-9.9
 2003/12/02,21:30,16,54,15.8,-9.9
 2003/12/02,21:45,16.5,54,15.2,-9.9
 2003/12/02,22:00,16.6,54,15.1,-9.9
 2003/12/02,22:15,16.5,53,14.8,-9.9
 2003/12/02,22:30,16.5,53,14.5,-9.9
 2003/12/02,22:45,16.3,53,15.1,-9.9
 2003/12/02,23:00,16.2,54,14.8,-9.9
 2003/12/02,23:15,16.1,54,14.4,-9.9
 2003/12/02,23:30,16,54,14.1,-9.9
 2003/12/02,23:45,15.8,55,14,-9.9
 2003/12/03, 0:00,15.7,55,13.8,-9.9
 2003/12/03, 0:15,15.5,55,13.6,-9.9
 2003/12/03, 0:30,15.3,55,13.5,-9.9
 2003/12/03, 0:45,15.2,55,13.4,-9.9
 2003/12/03, 1:00,15.1,55,13.2,-9.9
 2003/12/03, 1:15,15,55,13.2,-9.9
 2003/12/03, 1:30,14.9,55,13.2,-9.9
 2003/12/03, 1:45,14.8,56,13.1,-9.9
 2003/12/03, 2:00,14.8,56,12.9,-9.9
 2003/12/03, 2:15,14.7,56,12.9,-9.9
 2003/12/03, 2:30,14.6,56,12.9,-9.9
 2003/12/03, 2:45,14.5,56,12.7,-9.9
 2003/12/03, 3:00,14.5,56,12.6,-9.9
 2003/12/03, 3:15,14.4,56,12.6,-9.9
 2003/12/03, 3:30,14.3,56,12.6,-9.9
 2003/12/03, 3:45,14.3,56,12.5,-9.9
 2003/12/03, 4:00,14.3,57,12.4,-9.9
 2003/12/03, 4:15,14.2,57,12.4,-9.9
 2003/12/03, 4:30,14.2,56,12.3,-9.9
 2003/12/03, 4:45,14.1,57,12.2,-9.9
 2003/12/03, 5:00,14,57,12.2,-9.9
 2003/12/03, 5:15,14,57,12.1,-9.9
 2003/12/03, 5:30,13.9,56,12.1,-9.9
 2003/12/03, 5:45,13.9,56,11.9,-9.9
 2003/12/03, 6:00,13.8,56,11.9,-9.9
 2003/12/03, 6:15,13.8,57,11.9,-9.9
 2003/12/03, 6:30,13.9,57,12,-9.9
 2003/12/03, 6:45,13.9,57,12.2,-9.9
 2003/12/03, 7:00,14.3,59,12.1,-9.9
 2003/12/03, 7:15,15.5,56,12,-9.9
 2003/12/03, 7:30,15.9,55,12.4,-9.9
 2003/12/03, 7:45,18.1,48,12.8,-9.9
 2003/12/03, 8:00,17.1,53,12.7,-9.9
 2003/12/03, 8:15,17.1,52,12.9,-9.9
 2003/12/03, 8:30,16.4,53,13.2,-9.9
 2003/12/03, 8:45,16.1,53,13.1,-9.9
 2003/12/03, 9:00,16.1,53,13.1,-9.9
 2003/12/03, 9:15,16.1,53,13,-9.9
 2003/12/03, 9:30,16.2,52,13.2,-9.9
 2003/12/03, 9:45,16.3,52,13.6,-9.9
 2003/12/03,10:00,16.1,52,13.7,-9.9
 2003/12/03,10:15,16,51,13.7,-9.9
 2003/12/03,10:30,16,50,13.4,-9.9
 2003/12/03,10:45,16,49,13.5,-9.9
 2003/12/03,11:00,16.1,49,13.9,-9.9
 2003/12/03,11:15,15.8,42,14.1,-9.9
 2003/12/03,11:30,15.8,43,14.4,-9.9
 2003/12/03,11:45,15.8,43,14.4,-9.9
 2003/12/03,12:00,15.5,43,14.8,-9.9
 2003/12/03,12:15,15.5,42,15.1,-9.9
 2003/12/03,12:30,16.4,45,15.6,-9.9
 2003/12/03,12:45,16.6,49,15.8,-9.9
 2003/12/03,13:00,17,51,15.8,-9.9
 2003/12/03,13:15,17.4,49,16,-9.9
 2003/12/03,13:30,17.4,50,16.2,-9.9
 2003/12/03,13:45,17.1,49,16.1,-9.9
 2003/12/03,14:00,17.1,50,15.9,-9.9
 2003/12/03,14:15,16.9,48,15.7,-9.9
 2003/12/03,14:30,16.9,50,15.6,-9.9
 2003/12/03,14:45,16.9,51,15.8,-9.9
 2003/12/03,15:00,17,51,15.7,-9.9
 2003/12/03,15:15,17.1,52,15.8,-9.9
 2003/12/03,15:30,17.1,52,15.8,-9.9
 2003/12/03,15:45,17.1,52,15.8,-9.9
 2003/12/03,16:00,17.2,53,15.7,-9.9
 2003/12/03,16:15,17.4,53,15.6,-9.9
 2003/12/03,16:30,17.2,53,15.4,-9.9
 2003/12/03,16:45,16.9,53,15.3,-9.9
 2003/12/03,17:00,16.9,52,15.1,-9.9
 2003/12/03,17:15,16.8,53,15,-9.9
 2003/12/03,17:30,16.8,54,14.8,-9.9
 2003/12/03,17:45,16.7,53,14.7,-9.9
 2003/12/03,18:00,16.7,53,15.1,-9.9
 2003/12/03,18:15,16.6,53,15.9,-9.9
 2003/12/03,18:30,16.7,53,16.3,-9.9
 2003/12/03,18:45,16.7,54,16.1,-9.9
 2003/12/03,19:00,17.2,53,16.2,-9.9
 2003/12/03,19:15,17.3,53,16.3,-9.9
 2003/12/03,19:30,17.3,54,16.7,-9.9
 2003/12/03,19:45,17.2,56,16.1,-9.9
 2003/12/03,20:00,17.3,56,15.5,-9.9
 2003/12/03,20:15,17,55,15.1,-9.9
 2003/12/03,20:30,17.1,54,14.9,-9.9
 2003/12/03,20:45,16.9,53,14.8,-9.9
 2003/12/03,21:00,16.7,53,15,-9.9
 2003/12/03,21:15,16.8,54,15.9,-9.9
 2003/12/03,21:30,17.1,53,15.2,-9.9
 2003/12/03,21:45,17.1,53,15,-9.9
 2003/12/03,22:00,17.2,52,14.9,-9.9
 2003/12/03,22:15,17.1,52,14.7,-9.9
 2003/12/03,22:30,16.9,52,14.9,-9.9
 2003/12/03,22:45,16.7,52,14.4,-9.9
 2003/12/03,23:00,16.5,53,14,-9.9
 2003/12/03,23:15,16.7,53,13.7,-9.9
 2003/12/03,23:30,16.6,53,13.5,-9.9
 2003/12/03,23:45,16.3,53,13.4,-9.9
 2003/12/04, 0:00,16.2,53,13.4,-9.9
 2003/12/04, 0:15,16,53,13.1,-9.9
 2003/12/04, 0:30,15.8,53,12.9,-9.9
 2003/12/04, 0:45,15.6,53,12.9,-9.9
 2003/12/04, 1:00,15.4,53,12.7,-9.9
 2003/12/04, 1:15,15.2,53,12.7,-9.9
 2003/12/04, 1:30,15.1,53,12.6,-9.9
 2003/12/04, 1:45,14.9,53,12.6,-9.9
 2003/12/04, 2:00,14.8,53,12.5,-9.9
 2003/12/04, 2:15,14.7,53,12.6,-9.9
 2003/12/04, 2:30,14.6,53,12.4,-9.9
 2003/12/04, 2:45,14.5,54,12.3,-9.9
 2003/12/04, 3:00,14.4,53,12.2,-9.9
 2003/12/04, 3:15,14.3,54,12.2,-9.9
 2003/12/04, 3:30,14.3,54,12.1,-9.9
 2003/12/04, 3:45,14.2,54,12.1,-9.9
 2003/12/04, 4:00,14.1,54,12,-9.9
 2003/12/04, 4:15,14,54,12,-9.9
 2003/12/04, 4:30,13.9,54,11.9,-9.9
 2003/12/04, 4:45,13.9,54,11.9,-9.9
 2003/12/04, 5:00,13.8,54,11.9,-9.9
 2003/12/04, 5:15,13.8,54,11.8,-9.9
 2003/12/04, 5:30,13.7,54,11.9,-9.9
 2003/12/04, 5:45,13.7,54,11.9,-9.9
 2003/12/04, 6:00,13.7,54,11.8,-9.9
 2003/12/04, 6:15,13.7,53,11.7,-9.9
 2003/12/04, 6:30,13.7,54,12.3,-9.9
 2003/12/04, 6:45,13.9,54,12.1,-9.9
 2003/12/04, 7:00,14.4,55,12.1,-9.9
 2003/12/04, 7:15,15.2,53,12.1,-9.9
 2003/12/04, 7:30,15.4,52,12.1,-9.9
 2003/12/04, 7:45,16.9,52,12.8,-9.9
 2003/12/04, 8:00,15.8,52,12.9,-9.9
 2003/12/04, 8:15,15.5,52,12.6,-9.9
 2003/12/04, 8:30,15.2,48,12.2,-9.9
 2003/12/04, 8:45,15.1,46,12.2,-9.9
 2003/12/04, 9:00,15.3,48,12.6,-9.9
 2003/12/04, 9:15,15.3,48,12.4,-9.9
 2003/12/04, 9:30,15.2,49,12.4,-9.9
 2003/12/04, 9:45,15.2,49,12.4,-9.9
 2003/12/04,10:00,15.1,49,12.5,-9.9
 2003/12/04,10:15,15.1,49,12.6,-9.9
 2003/12/04,10:30,15.1,49,12.8,-9.9
 2003/12/04,10:45,15.1,49,13,-9.9
 2003/12/04,11:00,15.3,50,13.2,-9.9
 2003/12/04,11:15,15.8,47,13.8,-9.9
 2003/12/04,11:30,16.1,44,14.2,-9.9
 2003/12/04,11:45,16.2,43,14.5,-9.9
 2003/12/04,12:00,16.1,44,14.8,-9.9
 2003/12/04,12:15,16.2,45,15,-9.9
 2003/12/04,12:30,16.3,46,15.3,-9.9
 2003/12/04,12:45,16.8,46,15.3,-9.9
 2003/12/04,13:00,16.9,47,15.4,-9.9
 2003/12/04,13:15,17,48,15.8,-9.9
 2003/12/04,13:30,17,48,16,-9.9
 2003/12/04,13:45,17.1,49,16.3,-9.9
 2003/12/04,14:00,17.1,48,16.4,-9.9
 2003/12/04,14:15,17.1,47,16.3,-9.9
 2003/12/04,14:30,17.2,49,16.5,-9.9
 2003/12/04,14:45,17.2,50,16.5,-9.9
 2003/12/04,15:00,17.3,49,16.3,-9.9
 2003/12/04,15:15,17.3,49,16.3,-9.9
 2003/12/04,15:30,17.6,51,16.3,-9.9
 2003/12/04,15:45,17.6,52,16.2,-9.9
 2003/12/04,16:00,17.5,50,16.1,-9.9
 2003/12/04,16:15,17.4,50,15.9,-9.9
 2003/12/04,16:30,17.2,50,15.6,-9.9
 2003/12/04,16:45,17.1,50,15.4,-9.9
 2003/12/04,17:00,16.9,48,15.1,-9.9
 2003/12/04,17:15,16.9,48,14.8,-9.9
 2003/12/04,17:30,16.6,49,14.7,-9.9
 2003/12/04,17:45,16.7,49,14.5,-9.9
 2003/12/04,18:00,16.5,49,14.4,-9.9
 2003/12/04,18:15,16.4,49,14.2,-9.9
 2003/12/04,18:30,16.3,49,14.1,-9.9
 2003/12/04,18:45,16.3,49,14,-9.9
 2003/12/04,19:00,16.2,49,13.9,-9.9
 2003/12/04,19:15,18,49,14.1,-9.9
 2003/12/04,19:30,18.5,49,13.9,-9.9
 2003/12/04,19:45,18.9,48,14,-9.9
 2003/12/04,20:00,19.3,47,15.4,-9.9
 2003/12/04,20:15,19.6,47,15.5,-9.9
 2003/12/04,20:30,19.9,47,15.5,-9.9
 2003/12/04,20:45,19.9,48,16.9,-9.9
 2003/12/04,21:00,20,47,16.3,-9.9
 2003/12/04,21:15,20.1,47,16.2,-9.9
 2003/12/04,21:30,20.2,47,15.9,-9.9
 2003/12/04,21:45,20.2,47,15.8,-9.9
 2003/12/04,22:00,20.3,46,15.7,-9.9
 2003/12/04,22:15,18.9,47,15.5,-9.9
 2003/12/04,22:30,18.3,48,15.4,-9.9
 2003/12/04,22:45,18,48,15.1,-9.9
 2003/12/04,23:00,17.8,48,15.2,-9.9
 2003/12/04,23:15,17.8,50,16,-9.9
 2003/12/04,23:30,17.9,50,15.4,-9.9
 2003/12/04,23:45,17.7,49,15,-9.9
 2003/12/05, 0:00,17.5,50,14.8,-9.9
 2003/12/05, 0:15,17.5,50,14.4,-9.9
 2003/12/05, 0:30,17.3,50,14.8,-9.9
 2003/12/05, 0:45,18.3,49,14.4,-9.9
 2003/12/05, 1:00,18,50,14.2,-9.9
 2003/12/05, 1:15,18.1,49,14.4,-9.9
 2003/12/05, 1:30,17.8,50,13.9,-9.9
 2003/12/05, 1:45,17,50,13.8,-9.9
 2003/12/05, 2:00,16.7,50,13.5,-9.9
 2003/12/05, 2:15,16.5,50,13.4,-9.9
 2003/12/05, 2:30,16.3,50,13.2,-9.9
 2003/12/05, 2:45,16.1,50,13.1,-9.9
 2003/12/05, 3:00,15.9,50,13,-9.9
 2003/12/05, 3:15,15.7,50,12.9,-9.9
 2003/12/05, 3:30,15.5,50,12.8,-9.9
 2003/12/05, 3:45,15.4,50,12.6,-9.9
 2003/12/05, 4:00,15.3,51,12.6,-9.9
 2003/12/05, 4:15,15.2,51,12.5,-9.9
 2003/12/05, 4:30,15.1,51,12.4,-9.9
 2003/12/05, 4:45,14.9,51,12.5,-9.9
 2003/12/05, 5:00,14.8,51,12.3,-9.9
 2003/12/05, 5:15,14.7,51,12.2,-9.9
 2003/12/05, 5:30,14.5,52,12.2,-9.9
 2003/12/05, 5:45,14.5,52,12.2,-9.9
 2003/12/05, 6:00,14.4,52,12.1,-9.9
 2003/12/05, 6:15,14.3,51,11.9,-9.9
 2003/12/05, 6:30,14.2,51,11.9,-9.9
 2003/12/05, 6:45,14.1,51,12.3,-9.9
 2003/12/05, 7:00,15.2,52,12.7,-9.9
 2003/12/05, 7:15,18.1,47,12.3,-9.9
 2003/12/05, 7:30,17.6,49,12.4,-9.9
 2003/12/05, 7:45,17.8,48,12.4,-9.9
 2003/12/05, 8:00,18,48,12.6,-9.9
 2003/12/05, 8:15,18.4,47,12.6,-9.9
 2003/12/05, 8:30,18.3,45,12.6,-9.9
 2003/12/05, 8:45,17.1,48,12.6,-9.9
 2003/12/05, 9:00,16.9,48,12.8,-9.9
 2003/12/05, 9:15,16.8,47,12.9,-9.9
 2003/12/05, 9:30,16.7,48,12.9,-9.9
 2003/12/05, 9:45,16.5,42,13.3,-9.9
 2003/12/05,10:00,16.3,40,13.8,-9.9
 2003/12/05,10:15,16.5,42,14,-9.9
 2003/12/05,10:30,16.2,40,14.1,-9.9
 2003/12/05,10:45,16.1,40,14.2,-9.9
 2003/12/05,11:00,15.8,38,14.4,-9.9
 2003/12/05,11:15,16.1,38,14.5,-9.9
 2003/12/05,11:30,16,38,14.5,-9.9
 2003/12/05,11:45,15.9,38,14.7,-9.9
 2003/12/05,12:00,15.8,38,14.8,-9.9
 2003/12/05,12:15,16,39,15,-9.9
 2003/12/05,12:30,16,37,15.1,-9.9
 2003/12/05,12:45,16,36,15.8,-9.9
 2003/12/05,13:00,16,36,16,-9.9
 2003/12/05,13:15,16.6,37,16,-9.9
 2003/12/05,13:30,16.8,37,16.1,-9.9
 2003/12/05,13:45,16.9,38,16.5,-9.9
 2003/12/05,14:00,17.2,39,16.7,-9.9
 2003/12/05,14:15,17.4,40,16.9,-9.9
 2003/12/05,14:30,17.6,41,17,-9.9
 2003/12/05,14:45,17.6,42,17.1,-9.9
 2003/12/05,15:00,17.7,43,17.1,-9.9
 2003/12/05,15:15,17.7,43,17.1,-9.9
 2003/12/05,15:30,17.8,43,17.1,-9.9
 2003/12/05,15:45,17.6,44,17.1,-9.9
 2003/12/05,16:00,17.6,43,16.8,-9.9
 2003/12/05,16:15,17.2,44,16.6,-9.9
 2003/12/05,16:30,17.1,44,16.3,-9.9
 2003/12/05,16:45,17,44,16.1,-9.9
 2003/12/05,17:00,16.8,45,15.9,-9.9
 2003/12/05,17:15,18.1,45,15.6,-9.9
 2003/12/05,17:30,19.2,44,15.5,-9.9
 2003/12/05,17:45,19.8,44,15.5,-9.9
 2003/12/05,18:00,20.3,42,15.4,-9.9
 2003/12/05,18:15,21,43,15.4,-9.9
 2003/12/05,18:30,20.9,42,15.3,-9.9
 2003/12/05,18:45,21.4,40,15.3,-9.9
 2003/12/05,19:00,20.9,41,15.2,-9.9
 2003/12/05,19:15,19.6,40,16.1,-9.9
 2003/12/05,19:30,18.8,42,16.6,-9.9
 2003/12/05,19:45,18.7,44,16.6,-9.9
 2003/12/05,20:00,18.4,44,17.9,-9.9
 2003/12/05,20:15,18.3,45,17.9,-9.9
 2003/12/05,20:30,18.3,45,17.8,-9.9
 2003/12/05,20:45,18,45,17.2,-9.9
 2003/12/05,21:00,17.8,46,17,-9.9
 2003/12/05,21:15,17.7,46,17,-9.9
 2003/12/05,21:30,17.6,46,16.7,-9.9
 2003/12/05,21:45,17.6,47,16.5,-9.9
 2003/12/05,22:00,18,48,16.7,-9.9
 2003/12/05,22:15,18.8,47,16.3,-9.9
 2003/12/05,22:30,19,47,16.1,-9.9
 2003/12/05,22:45,19.3,48,16,-9.9
 2003/12/05,23:00,19.2,48,15.9,-9.9
 2003/12/05,23:15,19.3,48,15.9,-9.9
 2003/12/05,23:30,19.1,48,15.8,-9.9
 2003/12/05,23:45,19.3,48,15.7,-9.9
 2003/12/06, 0:00,18.2,49,15.6,-9.9
 2003/12/06, 0:15,17.9,50,15.5,-9.9
 2003/12/06, 0:30,17.8,49,15.4,-9.9
 2003/12/06, 0:45,17.5,50,15.3,-9.9
 2003/12/06, 1:00,17.3,49,15.3,-9.9
 2003/12/06, 1:15,17.2,49,15.1,-9.9
 2003/12/06, 1:30,17.1,49,15.1,-9.9
 2003/12/06, 1:45,17,49,15,-9.9
 2003/12/06, 2:00,17,49,15,-9.9
 2003/12/06, 2:15,16.8,49,14.9,-9.9
 2003/12/06, 2:30,16.7,49,14.8,-9.9
 2003/12/06, 2:45,16.7,49,14.8,-9.9
 2003/12/06, 3:00,16.6,50,14.8,-9.9
 2003/12/06, 3:15,16.5,50,14.8,-9.9
 2003/12/06, 3:30,16.4,50,14.7,-9.9
 2003/12/06, 3:45,16.4,51,14.7,-9.9
 2003/12/06, 4:00,16.4,51,14.6,-9.9
 2003/12/06, 4:15,16.3,51,14.5,-9.9
 2003/12/06, 4:30,16.3,52,14.5,-9.9
 2003/12/06, 4:45,16.2,52,14.5,-9.9
 2003/12/06, 5:00,16.2,51,14.4,-9.9
 2003/12/06, 5:15,16.1,52,14.4,-9.9
 2003/12/06, 5:30,16.1,52,14.4,-9.9
 2003/12/06, 5:45,16,52,14.3,-9.9
 2003/12/06, 6:00,16,52,14.3,-9.9
 2003/12/06, 6:15,15.9,52,14.2,-9.9
 2003/12/06, 6:30,15.9,52,14.2,-9.9
 2003/12/06, 6:45,15.8,52,14.2,-9.9
 2003/12/06, 7:00,15.8,52,14.2,-9.9
 2003/12/06, 7:15,15.8,52,14.8,-9.9
 2003/12/06, 7:30,15.8,52,15,-9.9
 2003/12/06, 7:45,15.8,52,14.7,-9.9
 2003/12/06, 8:00,15.8,53,14.6,-9.9
 2003/12/06, 8:15,17.4,51,14.5,-9.9
 2003/12/06, 8:30,18.1,50,14.6,-9.9
 2003/12/06, 8:45,18.8,49,14.7,-9.9
 2003/12/06, 9:00,19.1,48,14.7,-9.9
 2003/12/06, 9:15,19.5,48,14.8,-9.9
 2003/12/06, 9:30,19.5,48,14.8,-9.9
 2003/12/06, 9:45,18.5,50,15.1,-9.9
 2003/12/06,10:00,18.1,50,15.1,-9.9
 2003/12/06,10:15,17.8,51,15,-9.9
 2003/12/06,10:30,17.7,51,14.9,-9.9
 2003/12/06,10:45,17.7,51,15.1,-9.9
 2003/12/06,11:00,17.5,52,15.1,-9.9
 2003/12/06,11:15,17.8,53,15.1,-9.9
 2003/12/06,11:30,17.6,55,15.2,-9.9
 2003/12/06,11:45,17.4,57,15.2,-9.9
 2003/12/06,12:00,17.5,56,15.4,-9.9
 2003/12/06,12:15,17.5,56,15.5,-9.9
 2003/12/06,12:30,17.8,62,15.5,-9.9
 2003/12/06,12:45,18,61,15.5,-9.9
 2003/12/06,13:00,18,59,15.5,-9.9
 2003/12/06,13:15,17.9,57,15.8,-9.9
 2003/12/06,13:30,17.9,59,15.7,-9.9
 2003/12/06,13:45,17.8,58,15.8,-9.9
 2003/12/06,14:00,17.8,58,15.7,-9.9
 2003/12/06,14:15,17.5,58,15.8,-9.9
 2003/12/06,14:30,17.4,59,15.9,-9.9
 2003/12/06,14:45,17.4,61,15.9,-9.9
 2003/12/06,15:00,17.6,62,16,-9.9
 2003/12/06,15:15,17.5,62,16.1,-9.9
 2003/12/06,15:30,17.6,62,16.1,-9.9
 2003/12/06,15:45,17.6,64,16.1,-9.9
 2003/12/06,16:00,17.7,64,16,-9.9
 2003/12/06,16:15,17.6,65,16,-9.9
 2003/12/06,16:30,17.5,66,16,-9.9
 2003/12/06,16:45,17.5,65,15.9,-9.9
 2003/12/06,17:00,17.8,63,15.9,-9.9
 2003/12/06,17:15,18,63,16,-9.9
 2003/12/06,17:30,18.1,62,16.1,-9.9
 2003/12/06,17:45,18.1,61,16.1,-9.9
 2003/12/06,18:00,18.2,61,16.1,-9.9
 2003/12/06,18:15,18.2,60,16.1,-9.9
 2003/12/06,18:30,18.1,60,16.2,-9.9
 2003/12/06,18:45,18.4,60,16.2,-9.9
 2003/12/06,19:00,18.7,59,16.2,-9.9
 2003/12/06,19:15,18.6,58,16.3,-9.9
 2003/12/06,19:30,18.5,58,16.6,-9.9
 2003/12/06,19:45,18.5,58,18.6,-9.9
 2003/12/06,20:00,18.5,59,18,-9.9
 2003/12/06,20:15,18.4,59,19.7,-9.9
 2003/12/06,20:30,18.2,59,18.4,-9.9
 2003/12/06,20:45,18.3,59,18.4,-9.9
 2003/12/06,21:00,18.3,59,18.7,-9.9
 2003/12/06,21:15,18.1,58,18.5,-9.9
 2003/12/06,21:30,18,58,18.1,-9.9
 2003/12/06,21:45,18,58,17.8,-9.9
 2003/12/06,22:00,18.1,59,17.8,-9.9
 2003/12/06,22:15,18.2,59,17.5,-9.9
 2003/12/06,22:30,18.1,59,17.1,-9.9
 2003/12/06,22:45,18.1,59,16.9,-9.9
 2003/12/06,23:00,18,58,16.7,-9.9
 2003/12/06,23:15,17.8,58,16.5,-9.9
 2003/12/06,23:30,17.8,58,16.2,-9.9
 2003/12/06,23:45,17.7,57,16.1,-9.9
 2003/12/07, 0:00,17.6,55,15.8,-9.9
 2003/12/07, 0:15,17.3,55,15.6,-9.9
 2003/12/07, 0:30,17.3,54,15.4,-9.9
 2003/12/07, 0:45,17.2,54,15.3,-9.9
 2003/12/07, 1:00,17.1,54,15,-9.9
 2003/12/07, 1:15,17,54,15,-9.9
 2003/12/07, 1:30,16.9,54,14.8,-9.9
 2003/12/07, 1:45,16.9,53,14.8,-9.9
 2003/12/07, 2:00,16.8,53,14.7,-9.9
 2003/12/07, 2:15,16.7,53,14.7,-9.9
 2003/12/07, 2:30,16.7,54,14.5,-9.9
 2003/12/07, 2:45,16.5,54,14.5,-9.9
 2003/12/07, 3:00,16.5,54,14.5,-9.9
 2003/12/07, 3:15,16.4,54,14.4,-9.9
 2003/12/07, 3:30,16.3,54,14.3,-9.9
 2003/12/07, 3:45,16.2,54,14.3,-9.9
 2003/12/07, 4:00,16.2,54,14.3,-9.9
 2003/12/07, 4:15,16.1,54,14.1,-9.9
 2003/12/07, 4:30,16,54,14.1,-9.9
 2003/12/07, 4:45,16,54,13.9,-9.9
 2003/12/07, 5:00,15.8,54,13.9,-9.9
 2003/12/07, 5:15,15.7,53,13.7,-9.9
 2003/12/07, 5:30,15.7,53,13.7,-9.9
 2003/12/07, 5:45,15.6,53,13.7,-9.9
 2003/12/07, 6:00,15.5,54,13.6,-9.9
 2003/12/07, 6:15,15.4,54,13.6,-9.9
 2003/12/07, 6:30,15.4,53,13.9,-9.9
 2003/12/07, 6:45,15.3,53,13.8,-9.9
 2003/12/07, 7:00,15.3,54,13.7,-9.9
 2003/12/07, 7:15,15.4,53,13.5,-9.9
 2003/12/07, 7:30,15.8,55,13.7,-9.9
 2003/12/07, 7:45,17.8,52,13.6,-9.9
 2003/12/07, 8:00,18.5,49,13.6,-9.9
 2003/12/07, 8:15,18.6,48,13.4,-9.9
 2003/12/07, 8:30,19.1,47,13.4,-9.9
 2003/12/07, 8:45,18.1,46,13.6,-9.9
 2003/12/07, 9:00,17.5,47,13.4,-9.9
 2003/12/07, 9:15,17.1,46,13.3,-9.9
 2003/12/07, 9:30,17.1,47,13.1,-9.9
 2003/12/07, 9:45,17.2,47,13.2,-9.9
 2003/12/07,10:00,17.2,47,13.4,-9.9
 2003/12/07,10:15,17.1,43,13.8,-9.9
 2003/12/07,10:30,17.1,37,14,-9.9
 2003/12/07,10:45,17.1,37,13.9,-9.9
 2003/12/07,11:00,17.1,37,14,-9.9
 2003/12/07,11:15,17.3,37,14.2,-9.9
 2003/12/07,11:30,17.6,38,14.4,-9.9
 2003/12/07,11:45,18.2,40,14.8,-9.9
 2003/12/07,12:00,18.9,42,14.7,-9.9
 2003/12/07,12:15,19.1,44,15,-9.9
 2003/12/07,12:30,19.5,46,15.5,-9.9
 2003/12/07,12:45,19.6,46,15.4,-9.9
 2003/12/07,13:00,20,47,15.6,-9.9
 2003/12/07,13:15,20.1,46,15.9,-9.9
 2003/12/07,13:30,20,44,16,-9.9
 2003/12/07,13:45,20.1,46,16.1,-9.9
 2003/12/07,14:00,19.8,45,16.1,-9.9
 2003/12/07,14:15,19.9,43,16.2,-9.9
 2003/12/07,14:30,19.6,42,16.4,-9.9
 2003/12/07,14:45,19.2,44,16.2,-9.9
 2003/12/07,15:00,18.7,44,16,-9.9
 2003/12/07,15:15,18.8,44,16,-9.9
 2003/12/07,15:30,19.1,44,16.1,-9.9
 2003/12/07,15:45,18.9,43,16.1,-9.9
 2003/12/07,16:00,18.7,42,15.8,-9.9
 2003/12/07,16:15,18.3,43,15.6,-9.9
 2003/12/07,16:30,18.2,43,15.3,-9.9
 2003/12/07,16:45,18.1,43,15,-9.9
 2003/12/07,17:00,18.3,45,14.8,-9.9
 2003/12/07,17:15,18,43,14.5,-9.9
 2003/12/07,17:30,17.9,43,15.1,-9.9
 2003/12/07,17:45,17.6,43,15,-9.9
 2003/12/07,18:00,17.6,44,17.5,-9.9
 2003/12/07,18:15,17.5,45,16.9,-9.9
 2003/12/07,18:30,17.4,45,16.3,-9.9
 2003/12/07,18:45,17.4,45,16.1,-9.9
 2003/12/07,19:00,17.4,45,16.2,-9.9